User: anonymous   Login
Location: Haram ta Haram Freeway
(35.0583°N, 51.4202°E)
Time: 13:43:43
(UTC+03:30)
Language:

IRIDIUM 33 DEB - Orbit

View from above orbital plane
View from above orbital plane
View from above satellite
View from above satellite

Ground track
Ground track

The orbit data is extracted from the following two-line orbital elements,

1 38224U 97051YY  22276.12648541  .00029381  00000-0  67451-2 0  9999
2 38224  86.3749 223.1534 0089371 252.8561 106.2844 14.52904575530202
Epoch (UTC): 03 October 2022 03:02:08
Eccentricity: 0.0089371
inclination: 86.3749°
perigee height: 653 km
apogee height: 779 km
right ascension of ascending node: 223.1534°
argument of perigee: 252.8561°
revolutions per day: 14.52904575
mean anomaly at epoch: 106.2844°
orbit number at epoch: 53020

The dashed part of the orbit path shows where the satellite is in the earth's shadow,  

DLR